C/2021 C5 ( PanSTARRS )

Japanese version
Home page
Updated on May 29, 2022

---------------------------------------------------------------------

* Profile

Discovery Date February 12, 2021
Magnitude 21.0 mag
Discoverer Pan-STARRS 1 telescope (Haleakala)

* Pictures

* Orbital Elements

Epoch 2022 Jan. 21.0 TT = JDT 2459600.5
T 2023 Feb. 11.04131 TT                                 Rudenko
q   3.2418275            (2000.0)            P               Q
z  +0.0002211      Peri.  270.91706     -0.36142994     +0.81171584
 +/-0.0000036      Node   323.69022     -0.16791211     -0.54066954
e   0.9992834      Incl.   50.78520     -0.91715534     -0.22089327
From 190 observations 2020 Dec. 22-2022 Feb. 21, mean residual 0".5.

* Finding Charts

* Magnitudes Graph

        m1 = 8.5 + 5 log d + 10.0 log r

---------------------------------------------------------------------

The orbital elements are published on M.P.E.C. 2022-D36.
The charts are made with StellaNavigator Ver.10 (AstroArts).
The magnitudes graphs are made with Comet for Windows.

---------------------------------------------------------------------

Copyright(C) Seiichi Yoshida (comet@aerith.net). All rights reserved.